User: anonymous   Login
Location: Unspecified
(0.0000°N, 0.0000°E)
Time: 01:59:28
(UTC+00:00)
Language:

STARLINK-2329 - Orbit

View from above orbital plane
View from above orbital plane
View from above satellite
View from above satellite

Ground track
Ground track

The orbit is defined by the following mean orbital elements,

1 47873U          26145.02951796 +.00000000 +00000-0 -22040-4 0 00002
2 47873  53.1578 260.3637 0001844  79.5794 280.5415 15.31697140    07
Epoch (UTC): 25 May 2026 00:42:30
Eccentricity: 0.0001844
inclination: 53.1578°
perigee height: 469 km
apogee height: 472 km
right ascension of ascending node: 260.3637°
argument of perigee: 79.5794°
revolutions per day: 15.31697140
mean anomaly at epoch: 280.5415°

The dashed part of the orbit path shows where the satellite is in the earth's shadow,  

DLR